Spokane Fairchild, WA
on Friday, February 15, 2013

Friday
Previous Day Next Day
Daily Summary
 ActualAverage (KGEG)Record (KGEG)
Temperature
Mean Temperature °F / °C 33°F / 1°C  
Max Temperature 46°F / 8°C 39°F / 4°C 56°F / 13°C (1982)
Min Temperature 24°F / -4°C 26°F / -3°C -16°F / -26°C (1936)
Degree Days
Heating Degree Days 30 32  
Month to date heating degree days 494  
Since 1 July heating degree days 4427  
Cooling Degree Days 0 0  
Month to date cooling degree days 0  
Year to date cooling degree days 0  
Moisture
Dew Point 29°F / -2°C   
Average Humidity 88    
Maximum Humidity 100    
Minimum Humidity 63    
Precipitation
Precipitation 0.00 in / 0.00 cm 0.04 in / 1.02 cm 0.56 in / 1.42 cm (1986)
Month to date precipitation 0.70  
Year to date precipitation 2.49  
Snow
Snow 0.00 in / 0.00 cm 0.30 in / 0.76 cm 6.80 in / 17.27 cm (1990)
Month to date snowfall 4.0  
Since 1 July snowfall 37.5  
Snow Depth in / cm   
Wind
Wind Speed 3 mph / 5 km/h   
Max Wind Speed 8 mph / 13 km/h   
Max Gust Speed mph / km/h   
Visibility 10 miles / 16 kilometers   
Events     

Key: T is trace of precipitation, MM is missing value
Source: NWS Daily Summary
Time(PST)TemperatureDew PointHumidity Pressure Visibility Wind DirectionWind SpeedGust SpeedPrecipitationEvents Conditions
12:58 AM 28.9°F / -1.7°C 27.7°F / -2.4°C 95% 30.57 in / 1035.1 hPa 10.0 miles / 16.1 kilometers Calm Calm - N/A   Clear
1:29 AM 28.4°F / -2.0°C 26.6°F / -3.0°C 93% 30.48 in / 1032.1 hPa 10.0 miles / 16.1 kilometers Calm Calm - N/A   Clear
1:39 AM 26.6°F / -3.0°C 24.8°F / -4.0°C 93% 30.47 in / 1031.7 hPa 10.0 miles / 16.1 kilometers SW 3.5 mph / 5.6 km/h - N/A   Clear
1:58 AM 25.9°F / -3.4°C 24.8°F / -4.0°C 96% 30.56 in / 1034.9 hPa 10.0 miles / 16.1 kilometers West 2.3 mph / 3.7 km/h - 0.00 in / 0.0 cm   Clear
2:07 AM 24.8°F / -4.0°C 23.0°F / -5.0°C 93% 30.48 in / 1032.1 hPa 10.0 miles / 16.1 kilometers North 1.2 mph / 1.9 km/h - N/A   Clear
2:22 AM 26.6°F / -3.0°C 26.6°F / -3.0°C 100% 30.48 in / 1032.1 hPa 10.0 miles / 16.1 kilometers North 4.6 mph / 7.4 km/h - N/A   Clear
2:36 AM 26.6°F / -3.0°C 26.6°F / -3.0°C 100% 30.49 in / 1032.4 hPa 10.0 miles / 16.1 kilometers North 2.3 mph / 3.7 km/h - N/A   Clear
2:53 AM 26.6°F / -3.0°C 26.6°F / -3.0°C 100% 30.48 in / 1032.1 hPa 10.0 miles / 16.1 kilometers NNE 5.8 mph / 9.3 km/h - N/A   Clear
2:58 AM 26.6°F / -3.0°C 26.6°F / -3.0°C 100% 30.56 in / 1034.7 hPa 10.0 miles / 16.1 kilometers NNE 5.8 mph / 9.3 km/h - 0.00 in / 0.0 cm   Clear
3:58 AM 25.0°F / -3.9°C 24.3°F / -4.3°C 97% 30.56 in / 1034.9 hPa 10.0 miles / 16.1 kilometers East 4.6 mph / 7.4 km/h - N/A   Clear
4:58 AM 25.7°F / -3.5°C 25.5°F / -3.6°C 99% 30.56 in / 1034.9 hPa 10.0 miles / 16.1 kilometers ENE 4.6 mph / 7.4 km/h - N/A   Clear
5:58 AM 25.0°F / -3.9°C 24.3°F / -4.3°C 97% 30.58 in / 1035.3 hPa 10.0 miles / 16.1 kilometers ENE 4.6 mph / 7.4 km/h - N/A   Clear
6:25 AM 24.8°F / -4.0°C 24.8°F / -4.0°C 100% 30.47 in / 1031.7 hPa 10.0 miles / 16.1 kilometers East 4.6 mph / 7.4 km/h - N/A   Clear
6:34 AM 24.8°F / -4.0°C 24.8°F / -4.0°C 100% 30.48 in / 1032.1 hPa 10.0 miles / 16.1 kilometers East 3.5 mph / 5.6 km/h - N/A   Clear
6:58 AM 25.2°F / -3.8°C 25.0°F / -3.9°C 99% 30.57 in / 1035.1 hPa 10.0 miles / 16.1 kilometers ENE 5.8 mph / 9.3 km/h - 0.00 in / 0.0 cm   Clear
7:21 AM 24.8°F / -4.0°C 24.8°F / -4.0°C 100% 30.48 in / 1032.1 hPa 10.0 miles / 16.1 kilometers NNE 6.9 mph / 11.1 km/h - N/A   Clear
7:34 AM 24.8°F / -4.0°C 24.8°F / -4.0°C 100% 30.48 in / 1032.1 hPa 10.0 miles / 16.1 kilometers NE 4.6 mph / 7.4 km/h - N/A   Clear
7:58 AM 28.2°F / -2.1°C 28.0°F / -2.2°C 99% 30.57 in / 1035.1 hPa 10.0 miles / 16.1 kilometers NNE 5.8 mph / 9.3 km/h - 0.00 in / 0.0 cm   Clear
8:18 AM 28.4°F / -2.0°C 28.4°F / -2.0°C 100% 30.48 in / 1032.1 hPa 10.0 miles / 16.1 kilometers ESE 2.3 mph / 3.7 km/h - N/A   Clear
8:39 AM 32.0°F / 0.0°C 30.2°F / -1.0°C 93% 30.48 in / 1032.1 hPa 10.0 miles / 16.1 kilometers NE 2.3 mph / 3.7 km/h - N/A   Clear
8:58 AM 32.2°F / 0.1°C 30.9°F / -0.6°C 95% 30.56 in / 1034.9 hPa 10.0 miles / 16.1 kilometers East 2.3 mph / 3.7 km/h - 0.00 in / 0.0 cm   Clear
9:58 AM 36.7°F / 2.6°C 32.7°F / 0.4°C 86% 30.55 in / 1034.5 hPa 10.0 miles / 16.1 kilometers NNE 5.8 mph / 9.3 km/h - N/A   Clear
10:21 AM 39.2°F / 4.0°C 33.8°F / 1.0°C 81% 30.47 in / 1031.7 hPa 10.0 miles / 16.1 kilometers NE 5.8 mph / 9.3 km/h - N/A   Clear
10:36 AM 39.2°F / 4.0°C 33.8°F / 1.0°C 81% 30.47 in / 1031.7 hPa 10.0 miles / 16.1 kilometers East 3.5 mph / 5.6 km/h - N/A   Clear
10:58 AM 40.3°F / 4.6°C 34.3°F / 1.3°C 79% 30.54 in / 1034.2 hPa 10.0 miles / 16.1 kilometers ENE 4.6 mph / 7.4 km/h - 0.00 in / 0.0 cm   Clear
11:05 AM 41.0°F / 5.0°C 33.8°F / 1.0°C 76% 30.47 in / 1031.7 hPa 10.0 miles / 16.1 kilometers ENE 5.8 mph / 9.3 km/h - N/A   Clear
11:44 AM 42.8°F / 6.0°C 33.8°F / 1.0°C 70% 30.45 in / 1031.0 hPa 10.0 miles / 16.1 kilometers Variable 3.5 mph / 5.6 km/h - N/A   Clear
11:58 AM 43.5°F / 6.4°C 34.7°F / 1.5°C 71% 30.52 in / 1033.3 hPa 10.0 miles / 16.1 kilometers SSE 5.8 mph / 9.3 km/h - 0.00 in / 0.0 cm   Clear
12:58 PM 46.2°F / 7.9°C 35.2°F / 1.8°C 66% 30.50 in / 1032.6 hPa 10.0 miles / 16.1 kilometers South 5.8 mph / 9.3 km/h - N/A   Clear
1:58 PM 46.9°F / 8.3°C 34.9°F / 1.6°C 63% 30.47 in / 1031.6 hPa 10.0 miles / 16.1 kilometers SW 5.8 mph / 9.3 km/h - N/A   Clear
2:58 PM 46.2°F / 7.9°C 35.1°F / 1.7°C 65% 30.45 in / 1030.9 hPa 10.0 miles / 16.1 kilometers North 5.8 mph / 9.3 km/h - N/A   Clear
3:58 PM 44.6°F / 7.0°C 34.7°F / 1.5°C 68% 30.43 in / 1030.4 hPa 10.0 miles / 16.1 kilometers NNE 8.1 mph / 13.0 km/h - N/A   Clear
4:58 PM 41.9°F / 5.5°C 33.8°F / 1.0°C 73% 30.42 in / 1029.9 hPa 10.0 miles / 16.1 kilometers NNE 5.8 mph / 9.3 km/h - N/A   Clear
5:58 PM 39.6°F / 4.2°C 32.7°F / 0.4°C 76% 30.40 in / 1029.4 hPa 10.0 miles / 16.1 kilometers NNE 4.6 mph / 7.4 km/h - N/A   Clear
6:58 PM 37.4°F / 3.0°C 31.8°F / -0.1°C 80% 30.38 in / 1028.7 hPa 10.0 miles / 16.1 kilometers NNE 4.6 mph / 7.4 km/h - N/A   Clear
7:58 PM 34.7°F / 1.5°C 31.1°F / -0.5°C 87% 30.36 in / 1028.0 hPa 10.0 miles / 16.1 kilometers ENE 3.5 mph / 5.6 km/h - N/A   Clear
8:58 PM 34.3°F / 1.3°C 31.6°F / -0.2°C 90% 30.33 in / 1027.1 hPa 10.0 miles / 16.1 kilometers NE 2.3 mph / 3.7 km/h - N/A   Clear
9:58 PM 32.7°F / 0.4°C 30.2°F / -1.0°C 90% 30.32 in / 1026.6 hPa 10.0 miles / 16.1 kilometers Calm Calm - N/A   Clear
10:54 PM 32.0°F / 0.0°C 28.4°F / -2.0°C 87% 30.24 in / 1023.9 hPa 10.0 miles / 16.1 kilometers NNE 4.6 mph / 7.4 km/h - N/A   Clear
10:58 PM 32.5°F / 0.3°C 29.1°F / -1.6°C 87% 30.30 in / 1026.1 hPa 10.0 miles / 16.1 kilometers NNE 4.6 mph / 7.4 km/h - 0.00 in / 0.0 cm   Clear
11:10 PM 32.0°F / 0.0°C 30.2°F / -1.0°C 93% 30.24 in / 1023.9 hPa 10.0 miles / 16.1 kilometers NNE 5.8 mph / 9.3 km/h - N/A   Clear
11:58 PM 30.7°F / -0.7°C 28.8°F / -1.8°C 92% 30.29 in / 1025.5 hPa 10.0 miles / 16.1 kilometers NE 6.9 mph / 11.1 km/h - 0.00 in / 0.0 cm   Clear
Moon Phase
Feb. 15 Feb. 17 Feb. 25 Mar. 04 Mar. 11
Sunrise:06:55 AM (PST) Moon Rise:09:06 AM (PST)2/15
Sunset:05:14 PM (PST) Moon Set:11:50 PM (PST)2/15

Copyright © 2014 The Weather Underground, Inc.